When you browse on this site, cookies collect data to enhance your experience and personalize the content and advertising you see.
Visit our Privacy Policy to learn more. By continuing to use the site, you agree to this use of cookies and data.
  • In Lithuania
  • List of Countries
  • For 7 days
  • Water Temperature
  • Satellite Maps
  • Weather Map
  • Weather Widgets
  • user-avatar
    Login

    Hourly Weather Hajfong

    Today, 22 January, Tuesday

    Time Temperature Precipitation Wind Pressure Humidity
    00:00 +15°C° 0 mm 2 mps 767 mmHg 65%
    01:00 +15°C° 0 mm 2 mps 768 mmHg 64%
    02:00 +15°C° 0 mm 2 mps 767 mmHg 62%
    03:00 +15°C° 0 mm 2 mps 767 mmHg 61%
    04:00 +15°C° 0 mm 2 mps 767 mmHg 60%
    05:00 +15°C° 0 mm 2 mps 767 mmHg 59%
    06:00 +15°C° 0 mm 2 mps 767 mmHg 58%
    07:00 +14°C° 0 mm 2 mps 767 mmHg 58%
    08:00 +15°C° 0 mm 2 mps 768 mmHg 54%
    09:00 +16°C° 0 mm 2 mps 768 mmHg 51%
    10:00 +17°C° 0 mm 2 mps 768 mmHg 48%
    11:00 +19°C° 0 mm 1 mps 768 mmHg 45%
    12:00 +21°C° 0 mm 1 mps 767 mmHg 43%
    13:00 +20°C° 0 mm 0 mps 766 mmHg 41%
    14:00 +23°C° 0 mm 1 mps 765 mmHg 42%
    15:00 +23°C° 0 mm 1 mps 765 mmHg 43%
    16:00 +23°C° 0 mm 1 mps 764 mmHg 45%
    17:00 +21°C° 0 mm 2 mps 764 mmHg 50%
    18:00 +20°C° 0 mm 2 mps 764 mmHg 55%
    19:00 +19°C° 0 mm 2 mps 764 mmHg 59%
    20:00 +18°C° 0 mm 2 mps 765 mmHg 62%
    21:00 +18°C° 0 mm 2 mps 765 mmHg 64%
    22:00 +17°C° 0 mm 2 mps 765 mmHg 66%
    23:00 +18°C° 0 mm 1 mps 765 mmHg 66%

    Tomorrow, 23 January, Wednesday

    Time Temperature Precipitation Wind Pressure Humidity
    00:00 +18°C° 0 mm 1 mps 765 mmHg 67%
    01:00 +18°C° 0 mm 1 mps 765 mmHg 68%
    02:00 +16°C° 0 mm 1 mps 764 mmHg 69%
    03:00 +16°C° 0 mm 1 mps 764 mmHg 70%
    04:00 +16°C° 0 mm 2 mps 764 mmHg 71%
    05:00 +16°C° 0 mm 2 mps 764 mmHg 71%
    06:00 +16°C° 0 mm 2 mps 765 mmHg 72%
    07:00 +16°C° 0 mm 2 mps 765 mmHg 72%
    08:00 +18°C° 0 mm 2 mps 765 mmHg 64%
    09:00 +19°C° 0 mm 2 mps 766 mmHg 55%
    10:00 +21°C° 0 mm 2 mps 766 mmHg 47%
    11:00 +23°C° 0 mm 2 mps 765 mmHg 46%
    12:00 +24°C° 0 mm 3 mps 764 mmHg 45%
    13:00 +25°C° 0 mm 3 mps 763 mmHg 45%
    14:00 +23°C° 0 mm 4 mps 763 mmHg 48%
    15:00 +23°C° 0 mm 4 mps 762 mmHg 52%
    16:00 +23°C° 0 mm 4 mps 762 mmHg 56%
    17:00 +22°C° 0 mm 4 mps 762 mmHg 61%
    18:00 +21°C° 0 mm 4 mps 762 mmHg 66%
    19:00 +20°C° 0 mm 3 mps 763 mmHg 72%
    20:00 +20°C° 0 mm 3 mps 763 mmHg 74%
    21:00 +19°C° 0 mm 3 mps 763 mmHg 76%
    22:00 +19°C° 0 mm 3 mps 764 mmHg 77%
    23:00 +19°C° 0 mm 2 mps 763 mmHg 78%

    Day after tomorrow, 24 January, Thursday

    Time Temperature Precipitation Wind Pressure Humidity
    00:00 +19°C° 0 mm 2 mps 763 mmHg 79%
    01:00 +18°C° 0 mm 2 mps 763 mmHg 80%
    02:00 +18°C° 0 mm 2 mps 763 mmHg 80%
    03:00 +18°C° 0 mm 2 mps 762 mmHg 80%
    04:00 +18°C° 0 mm 2 mps 762 mmHg 80%
    05:00 +18°C° 0 mm 2 mps 763 mmHg 80%
    06:00 +18°C° 0 mm 2 mps 763 mmHg 81%
    07:00 +18°C° 0 mm 2 mps 763 mmHg 81%
    08:00 +19°C° 0.1 mm 2 mps 764 mmHg 78%
    09:00 +21°C° 0.1 mm 3 mps 764 mmHg 75%
    10:00 +22°C° 0.1 mm 3 mps 765 mmHg 72%
    11:00 +22°C° 0.1 mm 3 mps 764 mmHg 72%
    12:00 +24°C° 0.1 mm 3 mps 763 mmHg 72%
    13:00 +23°C° 0.1 mm 4 mps 763 mmHg 71%
    14:00 +23°C° 0 mm 4 mps 762 mmHg 71%
    15:00 +23°C° 0 mm 4 mps 762 mmHg 72%
    16:00 +23°C° 0 mm 5 mps 761 mmHg 72%
    17:00 +22°C° 0 mm 4 mps 761 mmHg 75%
    18:00 +22°C° 0 mm 4 mps 762 mmHg 77%
    19:00 +21°C° 0 mm 4 mps 762 mmHg 80%
    20:00 +21°C° 0 mm 4 mps 763 mmHg 80%
    21:00 +21°C° 0 mm 3 mps 763 mmHg 81%
    22:00 +21°C° 0 mm 3 mps 763 mmHg 81%
    23:00 +21°C° 0.1 mm 3 mps 763 mmHg 82%

    25 January, Friday

    Time Temperature Precipitation Wind Pressure Humidity
    00:00 +21°C° 0.1 mm 3 mps 763 mmHg 82%
    01:00 +21°C° 0.1 mm 2 mps 762 mmHg 82%
    02:00 +21°C° 0.1 mm 3 mps 762 mmHg 82%
    03:00 +21°C° 0.1 mm 3 mps 762 mmHg 82%
    04:00 +21°C° 0.1 mm 3 mps 762 mmHg 82%
    05:00 +21°C° 0.1 mm 3 mps 762 mmHg 83%
    06:00 +20°C° 0.1 mm 3 mps 763 mmHg 83%
    07:00 +20°C° 0.1 mm 3 mps 764 mmHg 84%
    08:00 +21°C° 0.1 mm 3 mps 764 mmHg 84%
    09:00 +21°C° 0.1 mm 3 mps 765 mmHg 84%
    10:00 +21°C° 0.1 mm 3 mps 765 mmHg 84%
    11:00 +22°C° 0 mm 4 mps 765 mmHg 78%
    12:00 +23°C° 0 mm 4 mps 764 mmHg 73%
    13:00 +26°C° 0 mm 4 mps 764 mmHg 68%
    14:00 +25°C° 0.1 mm 5 mps 764 mmHg 71%
    15:00 +23°C° 0.1 mm 5 mps 763 mmHg 73%
    16:00 +23°C° 0.1 mm 5 mps 763 mmHg 76%
    17:00 +22°C° 0 mm 5 mps 764 mmHg 78%
    18:00 +22°C° 0 mm 4 mps 764 mmHg 80%
    19:00 +21°C° 0 mm 4 mps 765 mmHg 82%
    20:00 +21°C° 0 mm 4 mps 765 mmHg 81%
    21:00 +21°C° 0 mm 3 mps 766 mmHg 80%
    22:00 +21°C° 0 mm 3 mps 766 mmHg 79%
    23:00 +21°C° 0 mm 3 mps 766 mmHg 79%

    26 January, Saturday

    Time Temperature Precipitation Wind Pressure Humidity
    00:00 +21°C° 0 mm 3 mps 766 mmHg 79%
    01:00 +21°C° 0 mm 2 mps 765 mmHg 79%
    02:00 +20°C° 0 mm 2 mps 765 mmHg 81%
    03:00 +20°C° 0 mm 2 mps 765 mmHg 82%
    04:00 +19°C° 0 mm 2 mps 765 mmHg 83%
    05:00 +19°C° 0 mm 2 mps 765 mmHg 84%
    06:00 +19°C° 0 mm 2 mps 766 mmHg 84%
    07:00 +19°C° 0 mm 2 mps 766 mmHg 84%
    08:00 +21°C° 0 mm 3 mps 767 mmHg 76%
    09:00 +22°C° 0 mm 3 mps 768 mmHg 67%
    10:00 +25°C° 0 mm 3 mps 768 mmHg 59%
    11:00 +26°C° 0 mm 4 mps 767 mmHg 56%
    12:00 +26°C° 0 mm 4 mps 767 mmHg 53%
    13:00 +27°C° 0 mm 4 mps 766 mmHg 49%
    14:00 +27°C° 0 mm 5 mps 766 mmHg 51%
    15:00 +26°C° 0 mm 5 mps 765 mmHg 52%
    16:00 +25°C° 0 mm 5 mps 765 mmHg 54%
    17:00 +23°C° 0 mm 5 mps 765 mmHg 59%
    18:00 +22°C° 0 mm 4 mps 766 mmHg 64%
    19:00 +21°C° 0 mm 4 mps 766 mmHg 69%
    20:00 +21°C° 0 mm 3 mps 766 mmHg 70%
    21:00 +21°C° 0 mm 3 mps 767 mmHg 71%
    22:00 +20°C° 0 mm 2 mps 767 mmHg 73%
    23:00 +20°C° 0 mm 2 mps 767 mmHg 73%

    27 January, Sunday

    Time Temperature Precipitation Wind Pressure Humidity
    00:00 +20°C° 0 mm 2 mps 767 mmHg 74%
    01:00 +19°C° 0 mm 2 mps 766 mmHg 74%
    02:00 +19°C° 0 mm 2 mps 766 mmHg 76%
    03:00 +19°C° 0 mm 2 mps 766 mmHg 78%
    04:00 +19°C° 0 mm 2 mps 766 mmHg 80%
    05:00 +18°C° 0 mm 2 mps 766 mmHg 82%
    06:00 +18°C° 0 mm 2 mps 767 mmHg 83%
    07:00 +18°C° 0 mm 3 mps 767 mmHg 84%
    08:00 +20°C° 0.1 mm 3 mps 767 mmHg 78%
    09:00 +22°C° 0.1 mm 4 mps 768 mmHg 72%
    10:00 +23°C° 0.1 mm 4 mps 768 mmHg 65%
    11:00 +25°C° 0.1 mm 5 mps 768 mmHg 63%
    12:00 +25°C° 0.1 mm 5 mps 767 mmHg 60%
    13:00 +26°C° 0.1 mm 5 mps 766 mmHg 57%
    14:00 +25°C° 0 mm 5 mps 766 mmHg 59%
    15:00 +25°C° 0 mm 5 mps 765 mmHg 60%
    16:00 +25°C° 0 mm 5 mps 765 mmHg 61%
    17:00 +23°C° 0 mm 4 mps 765 mmHg 66%
    18:00 +22°C° 0 mm 4 mps 765 mmHg 71%
    19:00 +21°C° 0 mm 4 mps 765 mmHg 76%
    20:00 +21°C° 0 mm 3 mps 766 mmHg 77%
    21:00 +20°C° 0 mm 3 mps 766 mmHg 79%
    22:00 +20°C° 0 mm 3 mps 766 mmHg 81%
    23:00 +20°C° 0 mm 3 mps 766 mmHg 82%
    Show more